Weather History for Paynesville, MN

Change the Weather History Date:

Monday, August 26, 2013

  Actual Average (KLJF) Record (KLJF)
Temperature  
Mean Temperature 83 °F -  
Max Temperature 93 °F 79 °F 94 °F (1976)
Min Temperature 74 °F 58 °F 41 °F (1958)
Cooling Degree Days 18    
Growing Degree Days 33 (Base 50)    
Moisture  
Dew Point 72 °F    
Average Humidity 71    
Maximum Humidity 90    
Minimum Humidity 51    
Precipitation  
Precipitation 0.00 in - - ()
Sea Level Pressure  
Sea Level Pressure 29.92 in    
Wind  
Wind Speed 5 mph (South)    
Max Wind Speed 13 mph    
Max Gust Speed 20 mph    
Visibility 9 miles    
Events Thunderstorm    
Averages and records for this station are not official NWS values.
T = Trace of Precipitation, MM = Missing Value Source: NWS Daily Summary

Daily Weather History Graph

Daily Weather History Graph

Search for Another Location

Airport:

Trip Planner

Search our weather history database for the weather conditions in past years. The results will help you decide how hot, cold, wet, or windy it might be!

Date:

Astronomy

Aug. 26, 2013 Rise Set
Actual Time 6:33 AM CDT 8:06 PM CDT
Civil Twilight 6:02 AM CDT 8:37 PM CDT
Nautical Twilight 5:24 AM CDT 9:15 PM CDT
Astronomical Twilight 4:44 AM CDT 9:55 PM CDT
Moon 10:57 PM CDT (8/26) 12:55 PM CDT (8/26)
Length of Visible Light 14h 35m
Length of Day
13h 33m
Waning Gibbous, 66% of the Moon is Illuminated
Aug 26
Waning Gibbous
Aug 28
Last Quarter
Sep 5
New
Sep 12
First Quarter
Sep 19
Full

Hourly Weather History & Observations

Time (CDT) Temp. Heat Index Dew Point Humidity Pressure Visibility Wind Dir Wind Speed Gust Speed Precip Events Conditions
12:13 AM 80.1 °F 84.6 °F 74.3 °F 82% 29.98 in 10.0 mi South 4.6 mph - N/A   Overcast
12:33 AM 79.7 °F - 74.3 °F 83% 29.98 in 10.0 mi South 3.5 mph - N/A   Overcast
12:53 AM 79.3 °F - 74.3 °F 84% 29.97 in 10.0 mi South 4.6 mph - N/A   Overcast
1:13 AM 79.2 °F - 74.3 °F 85% 29.98 in 10.0 mi South 4.6 mph - N/A   Overcast
1:33 AM 79.0 °F - 73.9 °F 84% 29.97 in 10.0 mi SSW 5.8 mph - N/A   Mostly Cloudy
1:52 AM 78.4 °F - 73.9 °F 86% 29.97 in 10.0 mi South 5.8 mph - N/A   Scattered Clouds
2:13 AM 78.1 °F - 73.8 °F 86% 29.96 in 10.0 mi South 4.6 mph - N/A   Clear
2:33 AM 77.7 °F - 73.6 °F 87% 29.96 in 10.0 mi Calm Calm - N/A   Clear
2:53 AM 77.4 °F - 73.6 °F 88% 29.96 in 7.0 mi South 3.5 mph - N/A   Clear
3:13 AM 77.2 °F - 73.6 °F 89% 29.96 in 5.0 mi South 5.8 mph - N/A   Clear
3:33 AM 77.2 °F - 73.4 °F 88% 29.96 in 7.0 mi South 6.9 mph - N/A   Clear
3:53 AM 77.2 °F - 73.0 °F 87% 29.96 in 10.0 mi South 4.6 mph - N/A   Clear
4:13 AM 76.6 °F - 72.9 °F 88% 29.96 in 7.0 mi SSW 3.5 mph - N/A   Clear
4:32 AM 76.3 °F - 72.5 °F 88% 29.96 in 10.0 mi SSW 4.6 mph - N/A   Clear
4:53 AM 76.1 °F - 72.5 °F 89% 29.96 in 7.0 mi SSW 3.5 mph - N/A   Clear
5:13 AM 75.6 °F - 72.1 °F 89% 29.96 in 7.0 mi Calm Calm - N/A   Clear
5:32 AM 75.4 °F - 72.0 °F 89% 29.96 in 7.0 mi South 4.6 mph - N/A   Clear
5:53 AM 75.0 °F - 71.6 °F 89% 29.96 in 7.0 mi Calm Calm - N/A   Clear
6:12 AM 74.7 °F - 71.6 °F 90% 29.96 in 7.0 mi Calm Calm - N/A   Clear
6:33 AM 74.3 °F - 71.2 °F 90% 29.97 in 7.0 mi Calm Calm - N/A   Clear
6:52 AM 74.3 °F - 71.2 °F 90% 29.97 in 5.0 mi Calm Calm - N/A   Clear
7:13 AM 74.5 °F - 71.2 °F 90% 29.97 in 4.0 mi South 3.5 mph - N/A   Clear
7:33 AM 75.2 °F - 71.2 °F 87% 29.97 in 5.0 mi South 6.9 mph - N/A   Clear
7:52 AM 76.1 °F - 71.6 °F 86% 29.97 in 7.0 mi SSW 5.8 mph - N/A   Clear
8:13 AM 77.5 °F - 71.4 °F 81% 29.97 in 7.0 mi SSW 4.6 mph - N/A   Clear
8:33 AM 79.2 °F - 71.6 °F 78% 29.98 in 7.0 mi SSW 4.6 mph - N/A   Clear
8:53 AM 80.6 °F 84.6 °F 71.6 °F 74% 29.97 in 7.0 mi SSW 4.6 mph - N/A   Clear
9:13 AM 81.7 °F 85.8 °F 71.2 °F 70% 29.97 in 10.0 mi South 4.6 mph - N/A   Clear
9:33 AM 82.6 °F 87.1 °F 71.1 °F 68% 29.97 in 10.0 mi South 4.6 mph - N/A   Clear
9:53 AM 84.0 °F 88.7 °F 70.7 °F 64% 29.97 in 10.0 mi South 4.6 mph - N/A   Clear
10:13 AM 85.1 °F 89.8 °F 70.5 °F 61% 29.96 in 10.0 mi South 6.9 mph - N/A   Clear
10:32 AM 85.3 °F 90.1 °F 70.3 °F 61% 29.96 in 10.0 mi SSW 4.6 mph - N/A   Clear
10:53 AM 85.6 °F 90.8 °F 70.7 °F 61% 29.96 in 10.0 mi South 6.9 mph - N/A   Clear
11:12 AM 86.9 °F 91.7 °F 70.2 °F 57% 29.96 in 10.0 mi South 5.8 mph - N/A   Clear
11:33 AM 88.0 °F 92.5 °F 69.4 °F 54% 29.96 in 10.0 mi South 5.8 mph - N/A   Clear
11:53 AM 88.2 °F 93.7 °F 70.7 °F 56% 29.96 in 10.0 mi SE 8.1 mph - N/A   Clear
12:12 PM 88.3 °F 93.2 °F 69.8 °F 54% 29.95 in 10.0 mi South 6.9 mph - N/A   Clear
12:33 PM 88.7 °F 93.9 °F 70.0 °F 54% 29.95 in 10.0 mi SSE 8.1 mph - N/A   Clear
12:52 PM 89.6 °F 95.7 °F 70.7 °F 54% 29.94 in 10.0 mi SE 9.2 mph - N/A   Clear
1:13 PM 88.0 °F 93.4 °F 70.7 °F 56% 29.94 in 10.0 mi SSE 8.1 mph - N/A   Clear
1:33 PM 89.4 °F 96.3 °F 71.6 °F 56% 29.92 in 10.0 mi SE 9.2 mph - N/A   Clear
1:52 PM 89.1 °F 95.0 °F 70.9 °F 55% 29.92 in 10.0 mi SE 11.5 mph 17.3 mph N/A   Clear
2:13 PM 90.1 °F 96.3 °F 70.7 °F 53% 29.92 in 10.0 mi SSE 12.7 mph - N/A   Clear
2:32 PM 90.5 °F 97.0 °F 71.2 °F 53% 29.91 in 10.0 mi SSE 9.2 mph - N/A   Clear
2:53 PM 90.7 °F 97.4 °F 71.6 °F 53% 29.91 in 10.0 mi South 11.5 mph 17.3 mph N/A   Clear
3:12 PM 91.8 °F 98.6 °F 71.4 °F 51% 29.91 in 10.0 mi South 10.4 mph - N/A   Clear
3:33 PM 92.1 °F 99.4 °F 71.8 °F 51% 29.90 in 10.0 mi SSE 11.5 mph - N/A   Scattered Clouds
3:53 PM 92.5 °F 100.1 °F 71.8 °F 51% 29.89 in 10.0 mi SSE 9.2 mph - N/A   Scattered Clouds
4:12 PM 91.4 °F 97.8 °F 71.1 °F 51% 29.89 in 10.0 mi South 10.4 mph - N/A   Scattered Clouds
4:33 PM 92.1 °F 99.9 °F 72.1 °F 52% 29.89 in 10.0 mi South 9.2 mph 17.3 mph N/A   Clear
4:53 PM 90.9 °F 97.3 °F 71.2 °F 52% 29.87 in 10.0 mi South 9.2 mph 17.3 mph N/A   Clear
5:12 PM 91.6 °F 99.3 °F 72.3 °F 53% 29.87 in 10.0 mi SSE 9.2 mph - N/A   Clear
5:33 PM 91.0 °F 99.8 °F 73.4 °F 56% 29.85 in 10.0 mi South 10.4 mph - N/A   Clear
5:53 PM 90.7 °F 98.5 °F 72.5 °F 55% 29.84 in 10.0 mi South 12.7 mph 19.6 mph N/A   Clear
6:13 PM 91.4 °F 99.5 °F 72.7 °F 54% 29.84 in 10.0 mi South 10.4 mph 16.1 mph N/A   Clear
6:33 PM 89.8 °F 98.1 °F 73.4 °F 58% 29.83 in 10.0 mi South 8.1 mph - N/A   Clear
6:52 PM 89.2 °F 97.4 °F 73.2 °F 59% 29.83 in 10.0 mi South 6.9 mph - N/A   Clear
7:13 PM 88.0 °F 96.5 °F 73.8 °F 63% 29.83 in 10.0 mi South 8.1 mph - N/A Thunderstorm Clear
7:33 PM 87.3 °F 95.8 °F 74.3 °F 65% 29.84 in 10.0 mi South 5.8 mph - N/A   Clear
7:53 PM 86.2 °F 94.2 °F 74.1 °F 67% 29.84 in 10.0 mi South 6.9 mph - N/A   Clear
8:13 PM 85.3 °F 93.0 °F 73.9 °F 69% 29.84 in 10.0 mi SSE 5.8 mph - N/A   Clear
8:33 PM 84.4 °F 91.7 °F 73.9 °F 71% 29.85 in 10.0 mi Calm Calm - N/A   Clear
8:53 PM 82.6 °F 89.1 °F 74.3 °F 76% 29.87 in 10.0 mi Calm Calm - N/A Thunderstorm Clear
9:12 PM 81.5 °F 86.9 °F 73.6 °F 77% 29.88 in 10.0 mi Calm Calm - N/A   Clear
9:33 PM 81.5 °F 86.9 °F 73.6 °F 77% 29.89 in 10.0 mi Calm Calm - N/A   Clear
9:53 PM 81.7 °F 87.3 °F 73.9 °F 77% 29.88 in 10.0 mi South 3.5 mph - N/A   Clear
10:13 PM 81.5 °F 87.4 °F 74.3 °F 79% 29.87 in 10.0 mi Calm Calm - N/A   Clear
10:32 PM 81.0 °F 86.3 °F 74.3 °F 80% 29.87 in 10.0 mi Calm Calm - N/A   Clear
10:53 PM 80.6 °F 85.9 °F 74.7 °F 82% 29.87 in 10.0 mi SSE 5.8 mph - N/A   Clear
11:13 PM 80.6 °F 85.9 °F 74.5 °F 82% 29.86 in 10.0 mi South 4.6 mph - N/A   Clear
11:33 PM 80.2 °F 85.0 °F 74.3 °F 82% 29.85 in 10.0 mi South 4.6 mph - N/A   Clear
11:53 PM 79.7 °F - 74.3 °F 83% 29.85 in 10.0 mi South 4.6 mph - N/A   Clear